Location: SAPM � Hemmingford
(45.0500°N, 73.5833°W)
Time: 18:09:35
(UTC-04:00)

Tiangong 2 - Visible Passes

Search period start: 24 March 2019 00:00
Search period end: 03 April 2019 00:00
Orbit: 380 x 390 km, 42.8° (Epoch: 24 March)

Date Brightness Start Highest point End Pass type
(mag) Time Alt. Az. Time Alt. Az. Time Alt. Az.
30 Mar 3.0 20:22:28 10° S 20:24:20 15° SSE 20:24:26 15° SSE visible
31 Mar 2.3 20:58:19 10° SW 21:00:27 28° S 21:00:27 28° S visible
01 Apr 2.5 19:59:15 10° SSW 20:01:46 22° SSE 20:04:02 11° ESE visible
01 Apr 3.3 21:35:06 10° WSW 21:36:16 20° WSW 21:36:16 20° WSW visible
02 Apr 1.5 20:35:40 10° WSW 20:38:40 42° SSE 20:39:44 30° ESE visible
